Location: Bougoura
(13.1861°N, 5.0773°W)
Time: 22:56:01
(UTC+00:00)

Meteor 2-11 Rocket - Visible Passes

Search period start: 17 January 2021 00:00
Search period end: 27 January 2021 00:00
Orbit: 940 x 956 km, 82.5° (Epoch: 17 January)

Date Brightness Start Highest point End Pass type
(mag) Time Alt. Az. Time Alt. Az. Time Alt. Az.
17 Jan 5.0 04:19:19 10° S 04:23:59 51° SSE 04:23:59 51° SSE visible
18 Jan 5.8 04:36:24 10° S 04:38:49 25° SSW 04:38:49 25° SSW visible
19 Jan 6.6 04:54:00 10° SSW 04:54:08 11° SSW 04:54:08 11° SSW visible
